Weather History for KUGN - May, 2013

Change the Weather History Date:

Wednesday, May 1, 2013

  Actual Average Record
Temperature  
Mean Temperature 65 °F -  
Max Temperature 81 °F 61 °F 83 °F (2001)
Min Temperature 47 °F 42 °F 32 °F (2005)
Degree Days  
Heating Degree Days 0 14  
Month to date heating degree days 14  
Since 1 July heating degree days 6300 6456  
Cooling Degree Days 0 0  
Month to date cooling degree days 0  
Year to date cooling degree days 8 4  
Growing Degree Days 15 (Base 50)    
Moisture  
Dew Point 53 °F    
Average Humidity 61    
Maximum Humidity 86    
Minimum Humidity 36    
Precipitation  
Precipitation 0.00 in 0.13 in 0.51 in (2003)
Month to date precipitation 0.00 0.13  
Year to date precipitation 11.12 8.98  
Sea Level Pressure  
Sea Level Pressure 30.05 in    
Wind  
Wind Speed 10 mph (SSE)    
Max Wind Speed 17 mph    
Max Gust Speed 23 mph    
Visibility 10 miles    
Events      
T = Trace of Precipitation, MM = Missing Value Source: NWS Daily Summary

Daily Weather History Graph

Daily Weather History Graph

Search for Another Location

Airport or City:

Trip Planner

Search our weather history database for the weather conditions in past years. The results will help you decide how hot, cold, wet, or windy it might be!

Date:

Astronomy

May. 01, 2013 Rise Set
Actual Time 5:46 AM CDT 7:51 PM CDT
Civil Twilight 5:15 AM CDT 8:22 PM CDT
Nautical Twilight 4:37 AM CDT 9:00 PM CDT
Astronomical Twilight 3:56 AM CDT 9:41 PM CDT
Moon 1:01 AM CDT (5/1) 11:24 AM CDT (5/1)
Length of Visible Light 15h 06m
Length of Day
14h 05m
Waning Gibbous, 59% of the Moon is Illuminated
May 1
Waning Gibbous
May 2
Last Quarter
May 9
New
May 17
First Quarter
May 24
Full

Hourly Weather History & Observations

Time (CDT) Temp. Dew Point Humidity Pressure Visibility Wind Dir Wind Speed Gust Speed Precip Events Conditions
12:52 AM 71.1 °F 59.0 °F 66% 29.92 in 10.0 mi South 13.8 mph - N/A   Clear
1:52 AM 70.0 °F 57.9 °F 65% 29.93 in 10.0 mi South 12.7 mph - N/A   Clear
2:52 AM 70.0 °F 57.0 °F 63% 29.93 in 10.0 mi SSW 13.8 mph - N/A   Clear
3:52 AM 66.9 °F 55.9 °F 68% 29.95 in 10.0 mi SSW 10.4 mph - N/A   Clear
4:52 AM 66.0 °F 55.9 °F 70% 29.97 in 10.0 mi SSW 10.4 mph - N/A   Clear
5:52 AM 66.0 °F 55.0 °F 68% 29.99 in 10.0 mi SSW 11.5 mph - N/A   Clear
6:52 AM 66.9 °F 55.9 °F 68% 30.01 in 10.0 mi SSW 10.4 mph - N/A   Clear
7:52 AM 71.1 °F 55.9 °F 59% 30.03 in 10.0 mi SSW 8.1 mph - N/A   Clear
8:52 AM 75.0 °F 55.0 °F 50% 30.04 in 10.0 mi SSW 10.4 mph 18.4 mph N/A   Clear
9:52 AM 77.0 °F 53.1 °F 43% 30.05 in 10.0 mi SW 15.0 mph - N/A   Clear
10:52 AM 80.1 °F 52.0 °F 38% 30.05 in 10.0 mi SW 10.4 mph 17.3 mph N/A   Clear
11:52 AM - - N/A% 30.09 in - North - - N/A   Unknown
12:52 PM - - N/A% 30.09 in - North - - N/A   Unknown
1:05 PM 75.2 °F 55.4 °F 50% 30.09 in 10.0 mi SE 13.8 mph - N/A   Unknown
1:52 PM 75.0 °F 55.0 °F 50% 30.06 in 10.0 mi SE 11.5 mph - N/A   Clear
2:52 PM 75.0 °F 53.1 °F 46% 30.07 in 10.0 mi SE 13.8 mph - N/A   Clear
3:52 PM 75.9 °F 53.1 °F 45% 30.07 in 10.0 mi SE 11.5 mph - N/A   Clear
4:52 PM 77.0 °F 52.0 °F 42% 30.06 in 10.0 mi SE 12.7 mph - N/A   Clear
5:52 PM 73.0 °F 52.0 °F 48% 30.07 in 10.0 mi ESE 6.9 mph - N/A   Clear
6:52 PM 70.0 °F 51.1 °F 51% 30.08 in 10.0 mi ESE 8.1 mph - N/A   Partly Cloudy
7:52 PM 64.0 °F 51.1 °F 63% 30.09 in 10.0 mi SE 8.1 mph - N/A   Clear
8:52 PM 62.1 °F 50.0 °F 65% 30.11 in 10.0 mi SE 6.9 mph - N/A   Clear
9:52 PM 60.1 °F 50.0 °F 69% 30.13 in 10.0 mi East 3.5 mph - N/A   Clear
10:52 PM 50.0 °F 46.0 °F 86% 30.14 in 6.0 mi NNE 9.2 mph - N/A   Clear
11:52 PM 48.9 °F 44.1 °F 83% 30.16 in 7.0 mi North 6.9 mph 16.1 mph N/A   Clear